Weather History for Sheridan, WY

Change the Weather History Date:

Monday, November 5, 2012

  Actual Average Record
Temperature  
Mean Temperature 53 °F 38 °F  
Max Temperature 70 °F 52 °F 78 °F (1975)
Min Temperature 36 °F 24 °F -5 °F (1973)
Degree Days  
Heating Degree Days 12 27  
Month to date heating degree days 93 131  
Since 1 July heating degree days 867 1039  
Cooling Degree Days 0 0  
Month to date cooling degree days 0 0  
Year to date cooling degree days 664 419  
Growing Degree Days 3 (Base 50)    
Moisture  
Dew Point 35 °F    
Average Humidity 59    
Maximum Humidity 92    
Minimum Humidity 25    
Precipitation  
Precipitation 0.00 in 0.03 in 0.58 in (1943)
Month to date precipitation T 0.13  
Year to date precipitation 7.94 13.02  
Sea Level Pressure  
Sea Level Pressure 30.11 in    
Wind  
Wind Speed 5 mph (NW)    
Max Wind Speed 24 mph    
Max Gust Speed 30 mph    
Visibility 10 miles    
Events      
T = Trace of Precipitation, MM = Missing Value Source: NWS Daily Summary

Daily Weather History Graph

Daily Weather History Graph

Search for Another Location

Airport:

Trip Planner

Search our weather history database for the weather conditions in past years. The results will help you decide how hot, cold, wet, or windy it might be!

Date:

Astronomy

Nov. 05, 2012 Rise Set
Actual Time 6:52 AM MST 4:50 PM MST
Civil Twilight 6:21 AM MST 5:21 PM MST
Nautical Twilight 5:46 AM MST 5:55 PM MST
Astronomical Twilight 5:12 AM MST 6:30 PM MST
Moon 10:31 PM MST (11/5) 12:13 PM MST (11/5)
Length of Visible Light 10h 59m
Length of Day
9h 58m
Waning Gibbous, 62% of the Moon is Illuminated
Nov 5
Waning Gibbous
Nov 6
Last Quarter
Nov 13
New
Nov 20
First Quarter
Nov 28
Full

Hourly Weather History & Observations

Time (MST) Temp. Windchill Dew Point Humidity Pressure Visibility Wind Dir Wind Speed Gust Speed Precip Events Conditions
12:53 AM 42.1 °F 39.2 °F 37.0 °F 82% 30.24 in 10.0 mi SSW 4.6 mph - N/A   Overcast
1:53 AM 39.0 °F - 35.1 °F 86% 30.23 in 10.0 mi Calm Calm - N/A   Clear
2:53 AM 36.0 °F 32.1 °F 34.0 °F 93% 30.21 in 10.0 mi South 4.6 mph - N/A   Clear
3:53 AM 42.1 °F 40.2 °F 35.1 °F 76% 30.18 in 10.0 mi South 3.5 mph - N/A   Clear
4:53 AM 37.0 °F - 33.1 °F 86% 30.18 in 10.0 mi Calm Calm - N/A   Clear
5:53 AM 37.0 °F 31.0 °F 34.0 °F 89% 30.16 in 10.0 mi South 8.1 mph - N/A   Clear
6:53 AM 37.9 °F - 33.1 °F 83% 30.14 in 10.0 mi Calm Calm - N/A   Clear
7:53 AM 39.0 °F - 35.1 °F 86% 30.16 in 10.0 mi Calm Calm - N/A   Clear
8:53 AM 44.1 °F - 37.9 °F 79% 30.13 in 10.0 mi Calm Calm - N/A   Clear
9:53 AM 50.0 °F - 42.1 °F 74% 30.09 in 10.0 mi SSW 4.6 mph - N/A   Clear
10:53 AM 50.0 °F - 41.0 °F 71% 30.08 in 10.0 mi Calm Calm - N/A   Clear
11:53 AM 60.1 °F - 43.0 °F 53% 30.01 in 10.0 mi Calm Calm - N/A   Clear
12:53 PM 64.9 °F - 39.0 °F 39% 29.98 in 10.0 mi NNW 3.5 mph - N/A   Clear
1:53 PM 69.1 °F - 35.1 °F 29% 29.97 in 10.0 mi NNE 5.8 mph - N/A   Clear
2:53 PM 69.1 °F - 32.0 °F 25% 29.98 in 10.0 mi NNW 9.2 mph - N/A   Clear
3:53 PM 66.0 °F - 30.0 °F 26% 29.99 in 10.0 mi NNW 15.0 mph 27.6 mph N/A   Clear
4:53 PM 61.0 °F - 30.0 °F 31% 30.03 in 10.0 mi NNW 10.4 mph - N/A   Clear
5:53 PM 53.1 °F - 30.0 °F 41% 30.06 in 10.0 mi NE 5.8 mph - N/A   Clear
6:53 PM 54.0 °F - 30.9 °F 41% 30.06 in 10.0 mi WNW 9.2 mph - N/A   Clear
7:53 PM 51.1 °F - 32.0 °F 48% 30.08 in 10.0 mi NW 9.2 mph - N/A   Clear
8:53 PM 54.0 °F - 34.0 °F 47% 30.08 in 10.0 mi NNW 21.9 mph - N/A   Clear
9:25 PM 51.8 °F - 37.4 °F 58% 30.12 in 10.0 mi NNE 5.8 mph - N/A   Clear
9:53 PM 48.9 °F - 37.0 °F 64% 30.15 in 10.0 mi Calm Calm - N/A   Clear
10:53 PM 43.0 °F 38.2 °F 36.0 °F 76% 30.19 in 10.0 mi NNW 8.1 mph - N/A   Clear
11:53 PM 41.0 °F 38.0 °F 35.1 °F 79% 30.17 in 10.0 mi NW 4.6 mph - N/A   Clear